Location: Unspecified
(22.6800°N, 112.2000°E)
Time: 08:54:02
(UTC+08:00)

X-37B - Pass Details

Date: 21 June 2021
Orbit: 383 x 392 km, 45.0° (Epoch: 01 July)

Event Time Altitude Azimuth Distance (km) Brightness Sun altitude
Rises 21:02:48 0° 237° (WSW) 2,243 4.7 -21.2°
Reaches altitude 10° 21:04:54 10° 243° (WSW) 1,392 3.7 -21.5°
Enters shadow 21:07:53 48° 315° (NW) 505 1.5 -22.1°
